This is the latest recevied weather packets stored in our database for station/object LA3SP-1. If no packets are shown the sender has not sent any weather packets the latest 10 day(s).
| Time | Temp. | Humidity | Pressure | Rain* | Wind** | Luminosity | Snow |
|---|---|---|---|---|---|---|---|
| 1777848366 | 0.56° C | 70% | 1001.8 hPa | 0 mm | - | - | - |
| 1777847764 | 0.56° C | 70% | 1001.8 hPa | 0 mm | - | - | - |
| 1777845960 | 0.56° C | 70% | 1002 hPa | 0 mm | - | - | - |
| 1777845359 | 0.56° C | 70% | 1002 hPa | 0 mm | - | - | - |
| 1777844757 | 0.56° C | 70% | 1002.1 hPa | 0 mm | - | - | - |
| 1777844156 | 1.11° C | 70% | 1002.2 hPa | 0 mm | - | - | - |
| 1777843554 | 1.11° C | 69% | 1002.4 hPa | 0 mm | - | - | - |
| 1777842352 | 1.11° C | 68% | 1002.4 hPa | 0 mm | - | - | - |
| 1777841751 | 1.67° C | 67% | 1002.5 hPa | 0 mm | - | - | - |
| 1777841149 | 1.67° C | 67% | 1002.6 hPa | 0 mm | - | - | - |
| 1777840548 | 1.67° C | 66% | 1002.6 hPa | 0 mm | - | - | - |
| 1777839946 | 1.67° C | 66% | 1002.6 hPa | 0 mm | - | - | - |
| 1777839345 | 1.67° C | 66% | 1002.4 hPa | 0 mm | - | - | - |
| 1777838142 | 2.22° C | 66% | 1002.5 hPa | 0 mm | - | - | - |
| 1777837541 | 2.22° C | 65% | 1002.7 hPa | 0 mm | - | - | - |
| 1777836939 | 2.78° C | 64% | 1002.7 hPa | 0 mm | - | - | - |
| 1777836338 | 2.78° C | 63% | 1002.5 hPa | 0 mm | - | - | - |
| 1777835736 | 2.78° C | 63% | 1002.5 hPa | 0 mm | - | - | - |
| 1777835135 | 3.33° C | 62% | 1002.5 hPa | 0 mm | - | - | - |
| 1777834533 | 3.33° C | 61% | 1002.5 hPa | 0 mm | - | - | - |
| 1777832730 | 3.89° C | 56% | 1002.6 hPa | 0 mm | - | - | - |
| 1777832128 | 4.44° C | 55% | 1002.7 hPa | 0 mm | - | - | - |
| 1777831527 | 5° C | 54% | 1002.6 hPa | 0 mm | - | - | - |
| 1777830925 | 5.56° C | 53% | 1002.6 hPa | 0 mm | - | - | - |
| 1777830324 | 5.56° C | 53% | 1002.7 hPa | 0 mm | - | - | - |
* Rain latest 24 hours (hover to see other rain measurements)
** Current wind speed in m/s (hover to see current wind gust speed)